STARLINK-32949, 63145

Orbit data source: Space-Track

STARLINK-32949, 63145 is a payload satellite owned by SpaceX/Seattle (US) in LEO that was launched on Mon, 03 Mar 2025 UTC via an FALCON 9 launch vehicle from the Air Force Eastern Test Range (AFETR). Payload-class satellites include a variety of spacecraft equipped with specific instruments for various scientific and technological missions. These include communications satellites like Starlink; space stations such as the ISS; scientific satellites like the Hubble; Earth observation satellites from companies like Planet Labs, Umbra, and HawkEye 360; GPS; miniature CubeSats for education and research; and military/defense satellites.

Loading next visibility...
Identifier
63145, 2025-043P
Orbit
LEO
Country
Flag of USUS
Related business
Manufacturer
SpaceX/Seattle
Mission
Operational Commercial Communications
Bus & Motor
STARLINK V2M, Unknown motor
Mass
730 kg wet, ~700 kg dry
Launch date (UTC)
2025-03-03 (7 months ago)
Launch vehicle
FALCON 9
Launch site
Air Force Eastern Test Range (AFETR)
Object type
Payload
Rocket body
Debris
Shape & HBR
Box + 2 Pan, 14.5 m
Radar Cross Section
33.884 m², Large (>1 m²)

Expand to show TLE details & history
Last TLE update: 10 hours ago

TLE from 10 hours ago
0 STARLINK-32949
1 63145U 25043P   25261.09896247  .00019802  00000-0  72654-3 0  9991
2 63145  43.0032 271.2051 0002813 290.2485  69.8064 15.27607249 31533
Epoch: 2025-09-18T02:22Z
TLE epoch observation values (Epoch: 2025-09-18T02:22:30.357Z)
Latitude
-0.00003°
Longitude
-121.68684°
Altitude
482.078 km
Speed
7.627 km/s
True Right ascension
18h 04m 49s
True Declination
0° 00' 00"
Sunlit
Object was in daylight at epoch
Visualization orbit readout
Latitude
Unknown
Longitude
Unknown
Altitude
Unknown
Speed
Unknown
Apparent Right ascension
Unknown
Apparent Declination
Unknown
Sunlit
N/A
Visualization observer readout
Local Sidereal Time
05:26:22
Azimuth
Unknown
Elevation
Unknown
Doppler factor
Unknown
Orbital elements
Apogee altitude
486.843 km
Perigee altitude
482.982 km
Semi-major axis
6,863.049 km
Eccentricity
0.00028
Inclination
43.0032°
RAAN
271.2051°
Arg. of periapsis
290.2485°
True anomaly
69.83666°
Mean anomaly
69.8064°
Eccentric anomaly
69.82153°
Mean motion
3.8174 °/min
Orbital period
94.31 mins
BSTAR
0.00072654
Loading maneuver chart data...
Computing Atmospheric mass density...
Loading historical data...
Loading historical data...
Loading historical data...
Loading historical data...
Loading historical data...
Loading historical data...
Loading historical data...

Documentation

Showing up to 5 results
|